Showing default

WESTPAC, 25398

Orbit data source: Space-Track

WESTPAC, 25398 is a payload satellite owned by EOS WPLTN (AU) in SSO that was launched on Fri, 10 Jul 1998 UTC via a ZENIT-2 launch vehicle from the Tyuratam Missile And Space Complex (TTMTR). Payload-class satellites include a variety of spacecraft equipped with specific instruments for various scientific and technological missions. These include communications satellites like Starlink; space stations such as the ISS; scientific satellites like the Hubble; Earth observation satellites from companies like Planet Labs, Umbra, and HawkEye 360; GPS; miniature CubeSats for education and research; and military/defense satellites.

Loading next visibility...
Identifier
25398, 1998-043E
Orbit
SSO
Country
Flag of AUAU / AUS
Related business
Manufacturer
EOS WPLTN
Mission
Operational Civil Geodetic
Bus & Motor
NIIKP, Unknown motor
Mass
24 kg wet, 24 kg dry
Launch date (UTC)
1998-07-10 (28 years ago)
Launch vehicle
ZENIT-2
Launch site
Tyuratam Missile And Space Complex (TTMTR)
Object type
Payload
Rocket body
Debris
Shape & HBR
Sphere, 0.1 m
Radar Cross Section
0.049 m², Medium (>0.1 m² and < 1m²)

Expand to show TLE details & history
Last TLE update: 8 hours ago

TLE from 8 hours ago
0 WESTPAC
1 25398U 98043E   26093.94894264  .00000005  00000-0  22747-4 0  9998
2 25398  99.0101  78.2561 0002326  75.2180 284.9255 14.23049121440385
Epoch: 2026-04-03T22:46Z
TLE epoch observation values (Epoch: 2026-04-03T22:46:28.644Z)
Latitude
0.00002°
Longitude
-95.63899°
Altitude
817.538 km
Speed
7.445 km/s
True Right ascension
05h 13m 01s
True Declination
0° 00' 00"
Sunlit
Object was in daylight at epoch
Visualization orbit readout
Latitude
Unknown
Longitude
Unknown
Altitude
Unknown
Speed
Unknown
Apparent Right ascension
Unknown
Apparent Declination
Unknown
Sunlit
N/A
Visualization observer readout
Local Sidereal Time
13:00:39
Azimuth
Unknown
Elevation
Unknown
Doppler factor
Unknown
Orbital elements
Apogee altitude
813.901 km
Perigee altitude
810.556 km
Semi-major axis
7,190.365 km
Eccentricity
0.00023
Inclination
99.0101°
RAAN
78.2561°
Arg. of periapsis
75.218°
True anomaly
284.89974°
Mean anomaly
284.9255°
Eccentric anomaly
284.91262°
Mean motion
3.55973 °/min
Orbital period
101.13 mins
BSTAR
0.000022747
Loading maneuver chart data...
Computing Atmospheric mass density...
Loading historical data...
Loading historical data...
Loading historical data...
Loading historical data...
Loading historical data...
Loading historical data...
Loading historical data...

Documentation

Showing up to 5 results
|